Weather History for Fairbanks Eiels, AK

Change the Weather History Date:

Sunday, November 24, 2013

  Actual Average Record
Temperature  
Mean Temperature 4 °F -  
Max Temperature 9 °F 7 °F 48 °F (1992)
Min Temperature -2 °F -7 °F -44 °F (1963)
Degree Days  
Heating Degree Days 62    
Moisture  
Dew Point 0 °F    
Average Humidity 83    
Maximum Humidity 85    
Minimum Humidity 78    
Precipitation  
Precipitation 0.00 in - - ()
Sea Level Pressure  
Sea Level Pressure 30.01 in    
Wind  
Wind Speed 3 mph (NNW)    
Max Wind Speed 6 mph    
Max Gust Speed -    
Visibility 9 miles    
Events Snow    
Averages and records for this station are not official NWS values.
T = Trace of Precipitation, MM = Missing Value Source: NWS Daily Summary

Daily Weather History Graph

Daily Weather History Graph

Search for Another Location

Airport:

Trip Planner

Search our weather history database for the weather conditions in past years. The results will help you decide how hot, cold, wet, or windy it might be!

Date:

Astronomy

Nov. 24, 2013 Rise Set
Actual Time 9:53 AM AKST 3:16 PM AKST
Civil Twilight 8:44 AM AKST 4:24 PM AKST
Nautical Twilight 7:39 AM AKST 5:30 PM AKST
Astronomical Twilight 6:40 AM AKST 6:28 PM AKST
Moon 11:20 PM AKST (11/24) 1:25 PM AKST (11/24)
Length of Visible Light 7h 40m
Length of Day
5h 22m
Waning Gibbous, 59% of the Moon is Illuminated
Nov 24
Waning Gibbous
Nov 25
Last Quarter
Dec 2
New
Dec 9
First Quarter
Dec 17
Full

Hourly Weather History & Observations

Time (AKST) Temp. Windchill Dew Point Humidity Pressure Visibility Wind Dir Wind Speed Gust Speed Precip Events Conditions
12:56 AM -0.4 °F -8.3 °F -4.0 °F 85% 29.89 in 10.0 mi NNW 3.5 mph - N/A   Clear
1:50 AM 1.4 °F -8.3 °F -2.2 °F 85% 29.90 in 8.0 mi North 4.6 mph - N/A   Partly Cloudy
1:58 AM 2.5 °F -7.0 °F -1.7 °F 83% 29.96 in 7.0 mi NNW 4.6 mph - N/A   Partly Cloudy
2:13 AM 3.2 °F -6.2 °F -0.4 °F 85% 29.91 in 4.0 mi Variable 4.6 mph - N/A Snow Light Snow
2:28 AM 3.2 °F -7.8 °F -0.4 °F 85% 29.91 in 6.0 mi NNW 5.8 mph - N/A Snow Light Snow
2:43 AM 5.0 °F -5.6 °F -0.4 °F 78% 29.91 in 6.0 mi NNW 5.8 mph - N/A   Partly Cloudy
2:58 AM 3.2 °F -7.8 °F -0.9 °F 83% 29.98 in 10.0 mi NNW 5.8 mph - 0.00 in   Clear
3:58 AM 1.2 °F -8.5 °F -2.9 °F 83% 29.99 in 10.0 mi North 4.6 mph - N/A   Partly Cloudy
4:58 AM -0.0 °F - -4.4 °F 82% 30.01 in 10.0 mi North 1.2 mph - N/A   Clear
5:43 AM -0.4 °F - -4.0 °F 85% 29.96 in 2.0 mi Calm Calm - N/A Snow Light Snow
5:58 AM -1.3 °F - -5.8 °F 81% 30.03 in 1.2 mi Calm Calm - 0.00 in   Clear
6:13 AM -2.2 °F - -7.6 °F 78% 29.97 in 10.0 mi NW 2.3 mph - N/A   Clear
6:58 AM -2.4 °F - -6.9 °F 81% 30.03 in 10.0 mi Calm Calm - N/A   Mostly Cloudy
7:58 AM -1.7 °F - -6.2 °F 81% 30.04 in 10.0 mi North 1.2 mph - N/A   Partly Cloudy
8:58 AM -0.0 °F - -4.2 °F 83% 30.05 in 10.0 mi Calm Calm - N/A   Overcast
9:58 AM 1.8 °F - -2.6 °F 82% 30.04 in 10.0 mi Calm Calm - N/A   Scattered Clouds
10:58 AM 4.5 °F - 0.5 °F 84% 30.02 in 10.0 mi Calm Calm - N/A   Scattered Clouds
11:58 AM 5.9 °F - 1.9 °F 84% 30.04 in 10.0 mi Calm Calm - N/A   Clear
12:58 PM 6.4 °F - 2.1 °F 82% 29.99 in 10.0 mi Variable 1.2 mph - N/A   Partly Cloudy
1:58 PM 6.6 °F - 2.7 °F 84% 30.03 in 10.0 mi North 1.2 mph - N/A   Scattered Clouds
2:58 PM 3.9 °F - -0.0 °F 84% 30.04 in 10.0 mi NE 1.2 mph - N/A   Mostly Cloudy
3:58 PM 5.7 °F -3.2 °F 1.8 °F 84% 30.04 in 10.0 mi WSW 4.6 mph - N/A   Mostly Cloudy
4:58 PM 4.8 °F - 0.7 °F 83% 30.06 in 10.0 mi Calm Calm - N/A   Overcast
5:58 PM 4.5 °F - 0.3 °F 83% 30.06 in 10.0 mi Calm Calm - N/A   Overcast
6:13 PM 5.0 °F - 1.4 °F 85% 30.00 in 10.0 mi Calm Calm - N/A   Overcast
6:58 PM 6.8 °F -0.1 °F 2.8 °F 84% 30.06 in 10.0 mi Variable 3.5 mph - N/A   Overcast
7:43 PM 6.8 °F - 3.2 °F 85% 30.01 in 10.0 mi SSE 2.3 mph - N/A   Overcast
7:58 PM 7.2 °F 0.3 °F 3.0 °F 83% 30.06 in 10.0 mi Variable 3.5 mph - N/A   Overcast
8:58 PM 8.1 °F - 3.7 °F 83% 30.07 in 10.0 mi East 1.2 mph - N/A   Overcast
9:13 PM 8.6 °F - 3.2 °F 79% 30.01 in 10.0 mi Calm Calm - N/A   Overcast
9:58 PM 8.8 °F - 4.3 °F 82% 30.07 in 10.0 mi Calm Calm - N/A   Overcast
10:28 PM 8.6 °F - 5.0 °F 85% 30.02 in 10.0 mi Calm Calm - N/A   Overcast
10:43 PM 8.6 °F - 5.0 °F 85% 30.02 in 10.0 mi Calm Calm - N/A   Overcast
10:58 PM 9.0 °F - 4.6 °F 83% 30.07 in 10.0 mi Calm Calm - N/A   Overcast
11:58 PM 9.3 °F - 5.2 °F 83% 30.07 in 10.0 mi Calm Calm - N/A   Overcast